Overview Statistics Trail Chart Weather Telemetry Raw packets
 

This is the latest recevied weather packets stored in our database for station/object KE8WMS. If no packets are shown the sender has not sent any weather packets the latest 10 day(s).

<< 66 67 68 69 70 71 72 >>
Time Temp. Humidity Pressure Rain* Wind** Luminosity Snow
1777383512 16.67° C 84% 1006.7 hPa 0 mm - 175 W/m² -
1777383209 16.67° C 83% 1006.7 hPa 0 mm - 217 W/m² -
1777382906 16.67° C 83% 1006.4 hPa 0 mm - 210 W/m² -
1777382601 16.67° C 83% 1006.5 hPa 0 mm - 157 W/m² -
1777382297 16.11° C 84% 1006.3 hPa 0 mm - 156 W/m² -
1777381993 15.56° C 85% 1006.5 hPa 0 mm - 176 W/m² -
1777381688 15.56° C 86% 1006.3 hPa 0 mm - 107 W/m² -
1777381384 15.56° C 86% 1006.4 hPa 0 mm - 104 W/m² -
1777381081 15.56° C 86% 1006.5 hPa 0 mm - 127 W/m² -
1777380777 15.56° C 86% 1006.6 hPa 0 mm - 141 W/m² -
1777380474 15° C 87% 1006.8 hPa 0 mm - 132 W/m² -
1777380171 15° C 88% 1006.3 hPa 0 mm - 107 W/m² -
1777379867 15° C 87% 1006.4 hPa 0 mm - 93 W/m² -
1777379563 15° C 88% 1006.5 hPa 0 mm - 98 W/m² -
1777379258 15° C 88% 1006.5 hPa 0 mm - 108 W/m² -
1777378958 15° C 89% 1006.3 hPa 0 mm - 100 W/m² -
1777378655 15° C 89% 1006.4 hPa 0 mm - 87 W/m² -
1777378352 15° C 90% 1006.1 hPa 0 mm - 79 W/m² -
1777378052 15° C 90% 1006.1 hPa 0 mm - 74 W/m² -
1777377746 14.44° C 90% 1006.1 hPa 0 mm - 62 W/m² -
1777377441 14.44° C 90% 1006.2 hPa 0 mm - 69 W/m² -
1777377137 14.44° C 91% 1005.6 hPa 0 mm - 65 W/m² -
1777376834 14.44° C 91% 1006.1 hPa 0 mm - 60 W/m² -
1777376531 14.44° C 91% 1006.2 hPa 0 mm - 57 W/m² -
1777376227 14.44° C 91% 1006.1 hPa 0 mm - 53 W/m² -

* Rain latest hour (hover to see other rain measurements)
** Current wind speed in m/s (hover to see current wind gust speed)